This is the latest recevied weather packets stored in our database for station/object K0CVS. If no packets are shown the sender has not sent any weather packets the latest 10 day(s).
| Time | Temp. | Humidity | Pressure | Rain* | Wind** | Luminosity | Snow |
|---|---|---|---|---|---|---|---|
| 1787762046 | 30.56° C | 60% | 1018.4 hPa | 0 mm | - | 560 W/m² | - |
| 1787761746 | 31.11° C | 60% | 1018.2 hPa | 0 mm | - | 552 W/m² | - |
| 1787761441 | 30.56° C | 61% | 1018.2 hPa | 0 mm | - | 539 W/m² | - |
| 1787761135 | 30° C | 64% | 1018.1 hPa | 0 mm | - | 529 W/m² | - |
| 1787760835 | 30° C | 65% | 1018.2 hPa | 0 mm | - | 518 W/m² | - |
| 1787760533 | 29.44° C | 64% | 1018.2 hPa | 0 mm | - | 507 W/m² | - |
| 1787760228 | 29.44° C | 67% | 1018.1 hPa | 0 mm | - | 498 W/m² | - |
| 1787759924 | 28.89° C | 66% | 1018.1 hPa | 0 mm | - | 485 W/m² | - |
| 1787759619 | 28.89° C | 67% | 1018.3 hPa | 0 mm | - | 470 W/m² | - |
| 1787759316 | 28.33° C | 69% | 1018.1 hPa | 0 mm | - | 461 W/m² | - |
| 1787759016 | 27.78° C | 69% | 1018.3 hPa | 0 mm | - | 239 W/m² | - |
| 1787758716 | 27.78° C | 73% | 1018.1 hPa | 0 mm | - | 358 W/m² | - |
| 1787758411 | 27.22° C | 76% | 1018.2 hPa | 0 mm | - | 105 W/m² | - |
| 1787758109 | 26.67° C | 78% | 1018.2 hPa | 0 mm | - | 77 W/m² | - |
| 1787757807 | 26.67° C | 79% | 1018.1 hPa | 0 mm | - | 87 W/m² | - |
| 1787757507 | 26.67° C | 79% | 1018.1 hPa | 0 mm | - | 68 W/m² | - |
| 1787757201 | 26.11° C | 82% | 1018 hPa | 0 mm | - | 65 W/m² | - |
| 1787756900 | 26.11° C | 83% | 1018.1 hPa | 0 mm | - | 64 W/m² | - |
| 1787756596 | 26.11° C | 82% | 1018 hPa | 0 mm | - | 63 W/m² | - |
| 1787756297 | 25.56° C | 84% | 1018.1 hPa | 0 mm | - | 61 W/m² | - |
| 1787755990 | 25.56° C | 85% | 1017.8 hPa | 0 mm | - | 60 W/m² | - |
| 1787755689 | 25.56° C | 86% | 1018 hPa | 0 mm | - | 63 W/m² | - |
| 1787755385 | 25° C | 87% | 1017.7 hPa | 0 mm | - | 61 W/m² | - |
| 1787755084 | 25° C | 88% | 1017.7 hPa | 0 mm | - | 59 W/m² | - |
| 1787754778 | 24.44° C | 90% | 1018 hPa | 0 mm | - | 62 W/m² | - |
* Rain latest hour (hover to see other rain measurements)
** Current wind speed in m/s (hover to see current wind gust speed)